DELTA 1 DEB, 42629

Orbit data source: Space-Track

DELTA 1 DEB, 42629 is space debris in SSO originally from a launch on Thu, 12 Jun 1975 UTC launched from the Air Force Western Test Range (AFWTR). Debris objects in space refer to the collection of defunct objects orbiting the Earth. Examples of debris include non-operational satellites, rocket bodies, and fragments generated from explosions, collisions, or faulty payload assembly.

Loading next visibility...
Identifier
42629, 1975-052LN
Orbit
SSO
Country
Flag of USUS
Related business
Manufacturer
Unknown
Mission
Spacecraft
Bus & Motor
Unknown
Mass
Unknown
Launch date (UTC)
1975-06-12 (50 years ago)
Launch vehicle
Unknown
Launch site
Air Force Western Test Range (AFWTR)
Object type
Payload
Rocket body
Debris
Shape & HBR
Unknown shape, 0.1 m
Radar Cross Section
Small (<0.1 m²)

Expand to show TLE details & history
Last TLE update: 2 weeks ago

TLE from 2 weeks ago
0 DELTA 1 DEB
1 42629U 75052LN  25274.63915760  .00000204  00000-0  51306-3 0  9993
2 42629  99.8434  44.3850 0073355 294.3874  64.9606 13.31012567 33002
Epoch: 2025-10-01T15:20Z
TLE epoch observation values (Epoch: 2025-10-01T15:20:23.216Z)
Latitude
-0.00003°
Longitude
163.67699°
Altitude
1,122.68 km
Speed
7.302 km/s
True Right ascension
02h 57m 32s
True Declination
0° 00' 00"
Sunlit
Object was in full shadow at epoch
Visualization orbit readout
Latitude
Unknown
Longitude
Unknown
Altitude
Unknown
Speed
Unknown
Apparent Right ascension
Unknown
Apparent Declination
Unknown
Sunlit
N/A
Visualization observer readout
Local Sidereal Time
07:20:25
Azimuth
Unknown
Elevation
Unknown
Doppler factor
Unknown
Orbital elements
Apogee altitude
1,195.432 km
Perigee altitude
1,085.129 km
Semi-major axis
7,518.417 km
Eccentricity
0.00734
Inclination
99.8434°
RAAN
44.385°
Arg. of periapsis
294.3874°
True anomaly
65.72513°
Mean anomaly
64.9606°
Eccentric anomaly
65.34257°
Mean motion
3.3293 °/min
Orbital period
108.13 mins
BSTAR
0.00051306
Loading maneuver chart data...
Computing Atmospheric mass density...

Documentation

Showing up to 5 results
|